NOAA 16 DEB, 41413

Orbit data source: Space-Track

NOAA 16 DEB, 41413 is space debris in SSO originally from a launch on Thu, 21 Sep 2000 UTC launched from the Air Force Western Test Range (AFWTR). Debris objects in space refer to the collection of defunct objects orbiting the Earth. Examples of debris include non-operational satellites, rocket bodies, and fragments generated from explosions, collisions, or faulty payload assembly.

Loading next visibility...
Identifier
41413, 2000-055KS
Orbit
SSO
Country
Flag of USUS
Related business
Manufacturer
Unknown
Mission
Spacecraft
Bus & Motor
Unknown
Mass
Unknown
Launch date (UTC)
2000-09-21 (26 years ago)
Launch vehicle
Unknown
Launch site
Air Force Western Test Range (AFWTR)
Object type
Payload
Rocket body
Debris
Shape & HBR
Unknown shape, 0.1 m
Radar Cross Section
Medium (>0.1 m² and <1 m²)

Expand to show TLE details & history
Last TLE update: 2 days ago

TLE from 2 days ago
0 NOAA 16 DEB
1 41413U 00055KS  26234.63786742  .00003193  00000-0  12034-2 0  9991
2 41413  98.6746 300.1343 0015957 309.7121  50.2655 14.32049902543749
Epoch: 2026-08-22T15:18Z
TLE epoch observation values (Epoch: 2026-08-22T15:18:31.745Z)
Latitude
Longitude
99.55662°
Altitude
780.522 km
Speed
7.467 km/s
True Right ascension
20h 00m 32s
True Declination
0° 00' 00"
Sunlit
Object was in full shadow at epoch
Visualization orbit readout
Latitude
Unknown
Longitude
Unknown
Altitude
Unknown
Speed
Unknown
Apparent Right ascension
Unknown
Apparent Declination
Unknown
Sunlit
N/A
Visualization observer readout
Local Sidereal Time
21:07:29
Azimuth
Unknown
Elevation
Unknown
Doppler factor
Unknown
Orbital elements
Apogee altitude
793.453 km
Perigee altitude
770.602 km
Semi-major axis
7,160.165 km
Eccentricity
0.0016
Inclination
98.6746°
RAAN
300.1343°
Arg. of periapsis
309.7121°
True anomaly
50.4063°
Mean anomaly
50.2655°
Eccentric anomaly
50.33588°
Mean motion
3.58227 °/min
Orbital period
100.49 mins
BSTAR
0.0012034
Loading maneuver chart data...
Computing Atmospheric mass density...
Loading historical data...
Loading historical data...
Loading historical data...
Loading historical data...
Loading historical data...
Loading historical data...
Loading historical data...

Documentation

Showing up to 5 results
|